Location: Lane
(33.5226°N, 79.8788°W)
Time: 23:25:22
(UTC+00:00)

SR - Pass Details

Date: 01 October 2022
Orbit: 577 x 874 km, 66.7° (Epoch: 06 December)

Event Time Altitude Azimuth Distance (km) Brightness Sun altitude
Rises 03:10:05 0° 234° (SW) 3,399 - -48.8°
Reaches altitude 10° 03:12:50 10° 245° (WSW) 2,492 - -49.2°
Maximum altitude 03:17:51 29° 305° (NW) 1,539 - -50.0°
Drops below altitude 10° 03:22:56 10° 4° (N) 2,524 - -50.8°
Sets 03:25:45 0° 16° (NNE) 3,450 - -51.2°
